Location: La Fredeussais
(48.1780°N, 1.3980°W)
Time: 03:07:27
(UTC+00:00)

Cosmos 1354 Rocket - Pass Details

Date: 09 May 2021
Orbit: 764 x 784 km, 74.0° (Epoch: 13 June)

Event Time Altitude Azimuth Distance (km) Brightness Sun altitude
Rises 20:44:30 0° 192° (SSW) 3,215 6.9 -10.9°
Reaches altitude 10° 20:46:52 10° 189° (S) 2,294 6.1 -11.2°
Maximum altitude 20:52:01 66° 108° (ESE) 838 4.0 -11.8°
Drops below altitude 10° 20:57:13 10° 28° (NNE) 2,318 6.7 -12.4°
Sets 20:59:37 0° 25° (NNE) 3,251 7.5 -12.7°
